User: anonymous   Login
Location: Cimarron National Grasslands
(37.1250°N, 101.7500°W)
Time: 03:32:18
(UTC-05:00)
Language:

Ariane Rocket - Orbit

View from above orbital plane
View from above orbital plane
View from above satellite
View from above satellite

Ground track
Ground track

The orbit data is extracted from the following two-line orbital elements,

1 23561U 95021B   16270.52937591  .00000084  00000-0  43234-4 0  9993
2 23561  98.7790 259.8517 0006397 327.7376 140.1361 14.37765755123367
Epoch (UTC): 26 September 2016 12:42:18
Eccentricity: 0.0006397
inclination: 98.7790°
perigee height: 761 km
apogee height: 770 km
right ascension of ascending node: 259.8517°
argument of perigee: 327.7376°
revolutions per day: 14.37765755
mean anomaly at epoch: 140.1361°
orbit number at epoch: 12336

The dashed part of the orbit path shows where the satellite is in the earth's shadow,  

DLR